Location: ??????
(56.0120°N, 39.1740°E)
Time: 02:09:49
(UTC+00:00)

Meteor 1-21 Rocket - Pass Details

Date: 14 April 2026
Orbit: 833 x 905 km, 81.2° (Epoch: 20 May)

Event Time Altitude Azimuth Distance (km) Brightness Sun altitude
Rises 17:03:10 0° 346° (NNW) 3,405 8.0 -5.4°
Reaches altitude 10° 17:05:37 10° 350° (N) 2,473 7.2 -5.7°
Maximum altitude 17:11:09 58° 70° (ENE) 987 4.4 -6.4°
Drops below altitude 10° 17:16:44 10° 149° (SSE) 2,496 6.1 -7.1°
Enters shadow 17:18:24 - 153° (SSE) 3,129 6.6 -7.3°
